TimeCDT,TemperatureF,Dew PointF,Humidity,Sea Level PressureIn,VisibilityMPH,Wind Direction,Wind SpeedMPH,Gust SpeedMPH,PrecipitationIn,Events,Conditions,WindDirDegrees,DateUTC
12:15 AM,38.5,38.5,100,30.33,10.0,SE,3.5,-,N/A,,Clear,130,2013-09-17 05:15:00
12:35 AM,46.8,43.3,88,30.32,10.0,SE,4.6,-,N/A,,Clear,130,2013-09-17 05:35:00
12:55 AM,40.1,38.1,93,30.33,10.0,Calm,Calm,-,N/A,,Clear,0,2013-09-17 05:55:00
1:15 AM,38.7,38.7,100,30.33,10.0,Calm,Calm,-,N/A,,Clear,0,2013-09-17 06:15:00
1:35 AM,37.2,37.2,100,30.33,10.0,Calm,Calm,-,N/A,,Clear,0,2013-09-17 06:35:00
1:55 AM,36.5,36.5,100,30.33,10.0,Calm,Calm,-,N/A,,Clear,0,2013-09-17 06:55:00
2:15 AM,37.0,37.0,100,30.33,10.0,Calm,Calm,-,N/A,,Clear,0,2013-09-17 07:15:00
2:35 AM,36.3,36.3,100,30.33,10.0,Calm,Calm,-,N/A,,Clear,0,2013-09-17 07:35:00
2:55 AM,36.1,36.1,100,30.33,10.0,Calm,Calm,-,N/A,,Clear,0,2013-09-17 07:55:00
3:15 AM,35.1,35.1,100,30.33,10.0,Calm,Calm,-,N/A,,Clear,0,2013-09-17 08:15:00
3:35 AM,35.2,35.2,100,30.32,10.0,Calm,Calm,-,N/A,,Clear,0,2013-09-17 08:35:00
3:55 AM,34.7,34.7,100,30.32,10.0,Calm,Calm,-,N/A,,Clear,0,2013-09-17 08:55:00
4:15 AM,34.2,34.2,100,30.32,10.0,Calm,Calm,-,N/A,,Clear,0,2013-09-17 09:15:00
4:35 AM,33.4,33.4,100,30.32,10.0,Calm,Calm,-,N/A,,Clear,0,2013-09-17 09:35:00
4:55 AM,33.3,33.3,100,30.32,10.0,Calm,Calm,-,N/A,,Clear,0,2013-09-17 09:55:00
5:15 AM,32.4,32.4,100,30.32,0.8,Calm,Calm,-,N/A,,Mostly Cloudy,0,2013-09-17 10:15:00
5:35 AM,32.0,32.0,100,30.30,0.5,Calm,Calm,-,N/A,Fog,Fog,0,2013-09-17 10:35:00
5:55 AM,32.2,32.2,100,30.31,0.5,Calm,Calm,-,N/A,Fog,Fog,0,2013-09-17 10:55:00
6:15 AM,32.9,32.9,100,30.31,0.8,Calm,Calm,-,N/A,,Overcast,0,2013-09-17 11:15:00
6:35 AM,32.2,32.2,100,30.30,0.2,Calm,Calm,-,N/A,Fog,Fog,0,2013-09-17 11:35:00
6:55 AM,32.9,32.9,100,30.31,0.2,Calm,Calm,-,N/A,Fog,Fog,0,2013-09-17 11:55:00
7:15 AM,32.9,32.9,100,30.31,5.0,Calm,Calm,-,N/A,,Scattered Clouds,0,2013-09-17 12:15:00
7:35 AM,34.9,34.9,100,30.30,4.0,Calm,Calm,-,N/A,,Clear,0,2013-09-17 12:35:00
7:55 AM,37.9,37.9,100,30.30,5.0,Calm,Calm,-,N/A,,Scattered Clouds,0,2013-09-17 12:55:00
8:15 AM,40.5,40.5,100,30.30,10.0,Calm,Calm,-,N/A,,Scattered Clouds,0,2013-09-17 13:15:00
8:35 AM,42.3,42.3,100,30.30,10.0,Calm,Calm,-,N/A,,Clear,0,2013-09-17 13:35:00
8:55 AM,44.2,44.2,100,30.29,10.0,Calm,Calm,-,N/A,,Clear,0,2013-09-17 13:55:00
9:15 AM,46.8,45.3,95,30.29,10.0,Calm,Calm,-,N/A,,Clear,0,2013-09-17 14:15:00
9:35 AM,48.9,46.6,92,30.29,10.0,Calm,Calm,-,N/A,,Scattered Clouds,0,2013-09-17 14:35:00
9:55 AM,50.9,47.7,89,30.28,10.0,Calm,Calm,-,N/A,,Scattered Clouds,0,2013-09-17 14:55:00
10:15 AM,54.5,47.3,77,30.28,10.0,SSE,3.5,-,N/A,,Scattered Clouds,150,2013-09-17 15:15:00
10:35 AM,56.8,48.0,72,30.27,10.0,SSE,3.5,-,N/A,,Scattered Clouds,160,2013-09-17 15:35:00
10:55 AM,59.5,46.6,62,30.26,10.0,SE,8.1,-,N/A,,Clear,140,2013-09-17 15:55:00
11:15 AM,60.4,45.3,57,30.25,10.0,SE,8.1,-,N/A,,Clear,130,2013-09-17 16:15:00
11:35 AM,61.0,42.8,51,30.24,10.0,ESE,3.5,-,N/A,,Clear,120,2013-09-17 16:35:00
11:55 AM,60.3,44.2,55,30.23,10.0,ESE,3.5,-,N/A,,Clear,110,2013-09-17 16:55:00
12:15 PM,61.5,43.9,52,30.22,10.0,SSE,5.8,-,N/A,,Clear,160,2013-09-17 17:15:00
12:35 PM,62.8,43.3,49,30.22,10.0,SSW,4.6,-,N/A,,Clear,200,2013-09-17 17:35:00
12:55 PM,64.4,45.5,50,30.21,10.0,SE,3.5,-,N/A,,Clear,140,2013-09-17 17:55:00
1:15 PM,65.3,46.8,51,30.21,10.0,South,6.9,-,N/A,,Scattered Clouds,170,2013-09-17 18:15:00
1:35 PM,64.4,46.6,52,30.20,10.0,South,5.8,-,N/A,,Clear,170,2013-09-17 18:35:00
1:55 PM,64.4,47.5,54,30.19,10.0,South,5.8,-,N/A,,Scattered Clouds,170,2013-09-17 18:55:00
2:15 PM,65.3,47.7,53,30.18,10.0,South,4.6,-,N/A,,Scattered Clouds,170,2013-09-17 19:15:00
2:35 PM,66.2,47.3,51,30.17,10.0,SSE,9.2,-,N/A,,Clear,160,2013-09-17 19:35:00
2:55 PM,65.7,46.9,51,30.16,10.0,South,9.2,-,N/A,,Clear,170,2013-09-17 19:55:00
3:15 PM,64.9,47.5,53,30.16,10.0,SSE,6.9,-,N/A,,Clear,160,2013-09-17 20:15:00
3:35 PM,65.3,48.9,55,30.14,10.0,South,4.6,-,N/A,,Clear,170,2013-09-17 20:35:00
3:55 PM,64.9,48.0,54,30.14,10.0,South,6.9,-,N/A,,Scattered Clouds,190,2013-09-17 20:55:00
4:15 PM,64.0,48.4,57,30.13,10.0,South,4.6,-,N/A,,Mostly Cloudy,170,2013-09-17 21:15:00
4:35 PM,63.7,49.3,59,30.13,10.0,SSE,4.6,-,N/A,Rain,Light Rain,160,2013-09-17 21:35:00
4:55 PM,62.8,51.6,67,30.12,10.0,SSE,3.5,-,N/A,Rain,Rain,160,2013-09-17 21:55:00
5:15 PM,60.4,54.9,82,30.12,10.0,Calm,Calm,-,N/A,Rain,Light Rain,0,2013-09-17 22:15:00
5:35 PM,60.1,55.4,85,30.11,10.0,Calm,Calm,-,0.01,Rain,Light Rain,0,2013-09-17 22:35:00
5:55 PM,59.7,58.5,96,30.11,7.0,Calm,Calm,-,0.02,Rain,Rain,0,2013-09-17 22:55:00
6:15 PM,59.2,59.0,99,30.09,10.0,Calm,Calm,-,0.01,Rain,Rain,0,2013-09-17 23:15:00
6:35 PM,59.0,58.8,99,30.09,10.0,Calm,Calm,-,0.01,,Overcast,0,2013-09-17 23:35:00
6:55 PM,58.8,58.5,99,30.09,10.0,SSE,3.5,-,0.01,,Overcast,150,2013-09-17 23:55:00
7:15 PM,58.5,58.3,99,30.09,10.0,Calm,Calm,-,N/A,Rain,Light Rain,0,2013-09-18 00:15:00
7:35 PM,58.5,58.1,99,30.08,10.0,Calm,Calm,-,N/A,,Light Drizzle,0,2013-09-18 00:35:00
7:55 PM,58.1,57.7,99,30.08,10.0,Calm,Calm,-,N/A,,Overcast,0,2013-09-18 00:55:00
8:15 PM,58.1,58.1,100,30.07,10.0,East,3.5,-,N/A,,Overcast,100,2013-09-18 01:15:00
8:35 PM,58.3,58.3,100,30.07,10.0,Calm,Calm,-,N/A,Rain,Light Rain,0,2013-09-18 01:35:00
8:55 PM,58.1,58.1,100,30.06,5.0,East,3.5,-,0.01,Rain,Light Rain,80,2013-09-18 01:55:00
9:15 PM,57.9,57.9,100,30.06,7.0,Calm,Calm,-,N/A,,Light Drizzle,0,2013-09-18 02:15:00
9:35 PM,57.7,57.7,100,30.06,7.0,Calm,Calm,-,N/A,,Overcast,0,2013-09-18 02:35:00
9:55 PM,58.1,58.1,100,30.05,7.0,East,3.5,-,N/A,,Overcast,90,2013-09-18 02:55:00
10:15 PM,58.1,58.1,100,30.05,7.0,ESE,3.5,-,N/A,Rain,Rain,110,2013-09-18 03:15:00
10:35 PM,57.7,57.7,100,30.05,2.5,ESE,3.5,-,0.08,Rain,Heavy Rain,110,2013-09-18 03:35:00
10:55 PM,57.6,57.6,100,30.04,5.0,Calm,Calm,-,0.14,Rain,Rain,0,2013-09-18 03:55:00
11:15 PM,57.7,57.7,100,30.04,7.0,Calm,Calm,-,N/A,,Overcast,0,2013-09-18 04:15:00
11:35 PM,57.7,57.7,100,30.03,5.0,Calm,Calm,-,N/A,,Overcast,0,2013-09-18 04:35:00
11:55 PM,58.1,58.1,100,30.03,5.0,Calm,Calm,-,N/A,Rain,Light Rain,0,2013-09-18 04:55:00